Location: Borgo
(42.3939°N, 9.2791°E)
Time: 19:06:54
(UTC+00:00)

Meteor 2-8 Rocket - Pass Details

Date: 24 January 2021
Orbit: 937 x 957 km, 82.5° (Epoch: 03 March)

Event Time Altitude Azimuth Distance (km) Brightness Sun altitude
Rises 17:38:28 0° 356° (N) 3,616 7.4 -13.3°
Reaches altitude 10° 17:41:02 10° 1° (N) 2,670 6.7 -13.8°
Maximum altitude 17:47:00 54° 78° (ENE) 1,137 4.5 -14.8°
Drops below altitude 10° 17:52:57 10° 155° (SSE) 2,666 6.7 -15.9°
Sets 17:55:30 0° 160° (SSE) 3,610 7.4 -16.4°
